| time (UTC) | temp F | wind direction | speed MPH | gust MPH | rain 1hr in | rain 24hr in | rain mn in | humidity % | barometer mb |
| 20260504023013 | 52 | 207 | 1.0 | 4.0 | 0.00 | 0.17 | 0.00 | 2 | 1016.7 |
| 20260504020012 | 53 | 227 | 1.0 | 4.0 | 0.00 | 0.17 | 0.00 | 15 | 1016.8 |
| 20260504014513 | 53 | 227 | 1.0 | 4.0 | 0.00 | 0.17 | 0.00 | 20 | 1016.8 |
| 20260504013012 | 54 | 215 | 1.0 | 4.0 | 0.00 | 0.17 | 0.00 | 22 | 1017.0 |
| 20260504010012 | 54 | 231 | 0.0 | 5.0 | 0.00 | 0.17 | 0.00 | 25 | 1017.0 |
| 20260504004513 | 54 | 213 | 1.0 | 3.0 | 0.00 | 0.17 | 0.00 | 22 | 1016.9 |
| 20260504003012 | 54 | 213 | 1.0 | 3.0 | 0.00 | 0.17 | 0.00 | 18 | 1016.9 |
| 20260504001513 | 54 | 214 | 1.0 | 4.0 | 0.00 | 0.17 | 0.00 | 24 | 1017.1 |
| 20260504000012 | 55 | 219 | 2.0 | 4.0 | 0.00 | 0.17 | 0.00 | 29 | 1017.2 |
| 20260503234513 | 55 | 223 | 1.0 | 4.0 | 0.00 | 0.17 | 0.00 | 26 | 1017.3 |
| 20260503233012 | 55 | 227 | 1.0 | 5.0 | 0.00 | 0.17 | 0.00 | 25 | 1017.4 |
| 20260503231513 | 55 | 227 | 1.0 | 4.0 | 0.00 | 0.17 | 0.00 | 23 | 1017.3 |
| 20260503230013 | 55 | 223 | 0.0 | 3.0 | 0.00 | 0.17 | 0.00 | 19 | 1017.5 |
| 20260503221513 | 55 | 218 | 0.0 | 1.0 | 0.00 | 0.17 | 0.00 | 32 | 1017.5 |
| 20260503220014 | 56 | 239 | 0.0 | 4.0 | 0.00 | 0.17 | 0.00 | 42 | 1017.6 |
| 20260503214513 | 56 | 226 | 1.0 | 4.0 | 0.00 | 0.17 | 0.17 | 45 | 1017.5 |
| 20260503213013 | 56 | 222 | 1.0 | 4.0 | 0.00 | 0.17 | 0.17 | 51 | 1017.6 |
| 20260503211513 | 57 | 232 | 1.0 | 3.0 | 0.00 | 0.17 | 0.17 | 53 | 1017.4 |
| 20260503210013 | 56 | 210 | 0.0 | 2.0 | 0.00 | 0.17 | 0.17 | 53 | 1017.6 |
| 20260503204513 | 56 | 220 | 0.0 | 2.0 | 0.00 | 0.17 | 0.17 | 51 | 1017.2 |
| 20260503201512 | 57 | 221 | 0.0 | 2.0 | 0.00 | 0.17 | 0.17 | 59 | 1017.0 |
| 20260503200013 | 57 | 198 | 1.0 | 2.0 | 0.00 | 0.17 | 0.17 | 60 | 1016.8 |
| 20260503194512 | 58 | 242 | 2.0 | 6.0 | 0.00 | 0.17 | 0.17 | 60 | 1016.7 |
| 20260503193013 | 59 | 247 | 4.0 | 7.0 | 0.00 | 0.17 | 0.17 | 58 | 1016.5 |
| 20260503190013 | 60 | 249 | 5.0 | 9.0 | 0.00 | 0.17 | 0.17 | 55 | 1016.3 |
| 20260503184512 | 61 | 247 | 7.0 | 11.0 | 0.00 | 0.17 | 0.17 | 52 | 1016.0 |
| 20260503183013 | 62 | 248 | 7.0 | 13.0 | 0.00 | 0.17 | 0.17 | 50 | 1015.9 |
| 20260503181512 | 64 | 248 | 8.0 | 15.0 | 0.00 | 0.17 | 0.17 | 48 | 1015.9 |
| 20260503180012 | 64 | 250 | 10.0 | 16.0 | 0.00 | 0.17 | 0.17 | 47 | 1015.8 |
| 20260503174513 | 64 | 247 | 9.0 | 16.0 | 0.00 | 0.17 | 0.17 | 48 | 1015.8 |
| 20260503173013 | 64 | 247 | 9.0 | 16.0 | 0.00 | 0.17 | 0.17 | 48 | 1015.6 |
| 20260503171512 | 65 | 239 | 9.0 | 15.0 | 0.00 | 0.17 | 0.17 | 46 | 1015.6 |
| 20260503081512 | 56 | 251 | 1.0 | 5.0 | 0.00 | 0.00 | 0.00 | 1 | 1018.6 |
| 20260503053012 | 55 | 0 | 0.0 | 0.0 | 0.00 | 0.00 | 0.00 | 1 | 1018.0 |
| 20260503051512 | 55 | 0 | 0.0 | 0.0 | 0.00 | 0.00 | 0.00 | 1 | 1018.0 |
| 20260503050012 | 55 | 0 | 0.0 | 0.0 | 0.00 | 0.00 | 0.00 | 1 | 1017.8 |
| 20260503044513 | 55 | 0 | 0.0 | 0.0 | 0.00 | 0.00 | 0.00 | 1 | 1017.8 |
| 20260503043013 | 55 | 170 | 0.0 | 2.0 | 0.00 | 0.00 | 0.00 | 1 | 1018.2 |
| 20260503041513 | 55 | 165 | 0.0 | 1.0 | 0.00 | 0.00 | 0.00 | 1 | 1018.2 |
| 20260503040012 | 55 | 0 | 0.0 | 0.0 | 0.00 | 0.00 | 0.00 | 1 | 1018.1 |
| 20260503033012 | 55 | 0 | 0.0 | 0.0 | 0.00 | 0.00 | 0.00 | 1 | 1018.2 |
| 20260503031513 | 55 | 0 | 0.0 | 0.0 | 0.00 | 0.00 | 0.00 | 1 | 1018.5 |
| 20260503024512 | 55 | 0 | 0.0 | 0.0 | 0.00 | 0.00 | 0.00 | 1 | 1018.6 |